Overview Statistics Trail Chart Weather Telemetry Raw packets
 

This is the latest recevied weather packets stored in our database for station/object HB9FHL-13. If no packets are shown the sender has not sent any weather packets the latest 10 day(s).

<< 119 120 121 122 123 124 125 >>
Time Temp. Humidity Pressure Rain* Wind** Luminosity Snow
1787920471 17.78° C - 1010.1 hPa 0 mm - - -
1787920174 18.33° C - 1014.8 hPa 0 mm - - -
1787920171 18.33° C - 1014.8 hPa 0 mm - - -
1787919870 18.33° C - 1022.4 hPa 0 mm - - -
1787919652 18.89° C - 1019.3 hPa 0 mm - - -
1787919575 18.89° C - 1019.3 hPa 0 mm - - -
1787919570 18.89° C - 1019.3 hPa 0 mm - - -
1787919269 18.33° C - 1016.7 hPa 0 mm - - -
1787918970 18.33° C - 1016.3 hPa 0 mm - - -
1787918967 18.33° C - 1016.3 hPa 0 mm - - -
1787918667 18.33° C - 1017.4 hPa 0 mm - - -
1787918373 18.89° C - 1020.2 hPa 0 mm - - -
1787918369 18.89° C - 1020.2 hPa 0 mm - - -
1787918066 19.44° C - 1009.3 hPa 0 mm - - -
1787917765 19.44° C - 1018.5 hPa 0 mm - - -
1787917465 20° C - 1014.7 hPa 0 mm - - -
1787917168 18.89° C - 1013.3 hPa 0 mm - - -
1787917164 18.89° C - 1013.3 hPa 0 mm - - -
1787916864 19.44° C - 1019.6 hPa 0 mm - - -
1787916564 20.56° C - 1013.8 hPa 0 mm - - -
1787916263 20.56° C - 1019.6 hPa 0 mm - - -
1787915967 21.11° C - 1018.6 hPa 0 mm - - -
1787915962 21.11° C - 1018.6 hPa 0 mm - - -
1787915665 21.11° C - 1013.2 hPa 0 mm - - -
1787915662 21.11° C - 1013.2 hPa 0 mm - - -

* Rain since midnight (hover to see other rain measurements)
** Current wind speed in m/s (hover to see current wind gust speed)